Date,TemperatureHighF,TemperatureAvgF,TemperatureLowF,DewpointHighF,DewpointAvgF,DewpointLowF,HumidityHigh,HumidityAvg,HumidityLow,PressureMaxIn,PressureMinIn,WindSpeedMaxMPH,WindSpeedAvgMPH,GustSpeedMaxMPH,PrecipitationSumIn
2013-10-1,63.1,60.0,53.2,62.9,58.4,53.0,99,95,87,29.80,29.75,4,2,13,0.00
2013-10-2,73.9,62.4,56.7,68.8,61.0,56.4,99,95,81,29.88,29.77,4,2,13,0.00
2013-10-3,66.9,61.5,55.9,66.6,61.3,55.7,99,99,99,29.86,29.70,4,1,13,0.00
2013-10-4,71.1,63.6,56.5,68.8,62.6,56.2,99,97,84,29.94,29.67,5,2,18,0.00
2013-10-5,68.0,60.0,53.8,67.0,59.4,53.5,99,98,91,30.24,29.94,1,0,4,0.00
2013-10-6,73.4,55.1,43.3,60.5,52.1,43.1,99,91,59,30.29,30.24,2,0,8,0.00
2013-10-7,72.9,58.7,48.4,64.1,56.9,48.1,99,94,69,30.29,30.24,3,1,9,0.00
2013-10-8,71.8,61.5,53.1,65.0,60.2,52.8,99,96,75,30.27,30.22,3,1,12,0.00
2013-10-9,66.9,56.3,45.0,62.0,53.3,41.6,99,90,76,30.23,29.98,3,1,12,0.00
2013-10-10,56.5,48.2,43.2,45.7,42.8,40.6,97,82,61,30.11,30.00,4,2,17,0.00
2013-10-11,56.8,51.9,46.6,54.9,50.8,43.0,99,96,81,30.10,29.94,3,2,15,0.00
2013-10-12,62.8,52.1,44.1,54.6,50.4,43.8,99,94,65,30.10,29.94,3,1,11,0.00
2013-10-13,52.7,49.8,46.0,52.4,49.5,45.8,99,99,99,29.99,29.76,2,1,11,0.00
2013-10-14,54.7,49.2,46.4,54.4,49.0,46.1,99,99,97,29.77,29.69,3,2,12,0.00
2013-10-15,57.4,48.6,41.0,56.0,48.1,40.7,99,98,91,29.94,29.74,2,0,8,0.00
2013-10-16,62.2,49.8,38.8,62.0,49.5,38.6,99,99,98,29.94,29.67,3,1,14,0.00
2013-10-17,65.3,56.3,50.7,63.4,55.7,50.4,99,98,89,29.99,29.81,4,1,13,0.00
2013-10-18,66.0,56.1,47.1,64.5,55.7,46.9,99,99,94,30.00,29.76,4,1,13,0.00
2013-10-19,64.8,58.6,51.8,64.5,58.3,51.5,99,99,99,29.75,29.63,5,1,16,0.00
2013-10-20,61.9,57.0,51.8,61.6,56.7,51.5,99,99,99,29.74,29.62,6,2,17,0.84
2013-10-21,64.0,59.8,54.3,63.8,59.5,54.0,99,99,99,29.74,29.59,7,3,24,0.10
2013-10-22,66.2,61.1,55.0,65.9,60.8,54.8,99,99,99,29.59,29.32,4,2,17,0.83
2013-10-23,64.8,56.5,45.5,61.4,55.2,45.2,99,96,76,29.85,29.24,6,3,24,0.17
2013-10-24,67.5,51.2,39.2,61.8,50.6,38.9,99,98,81,29.96,29.80,3,1,11,0.02
2013-10-25,56.3,55.0,54.9,56.0,54.7,54.6,99,99,95,29.81,29.57,6,3,20,0.15
2013-10-26,59.0,55.2,54.9,58.7,54.9,54.6,99,99,96,29.70,29.48,7,4,24,0.13
2013-10-27,62.8,56.8,51.6,57.8,54.9,51.3,99,96,78,29.49,29.22,8,4,26,0.96
2013-10-28,61.0,53.9,45.7,60.2,52.5,45.4,99,97,80,29.58,28.90,11,4,34,1.01
2013-10-29,58.8,46.3,39.9,51.5,44.6,39.7,99,94,68,30.06,29.59,3,1,14,0.00
2013-10-30,60.6,43.1,34.0,56.2,42.3,33.7,99,97,79,30.16,30.05,5,1,17,0.02
2013-10-31,55.8,54.4,52.9,55.5,54.1,52.6,99,99,99,30.05,29.92,5,2,19,0.26